| time (UTC) | temp F | wind direction | speed knots | gust knots | rain 1hr in | rain 24hr in | rain mn in | humidity % | barometer mb |
| 20260902003020 | 68 | 130 | 0.0 | 1.7 | 0.00 | 0.01 | 0.00 | 69 | 1010.0 |
| 20260902001505 | 68 | 147 | 0.0 | 2.6 | 0.00 | 0.01 | 0.00 | 68 | 1010.0 |
| 20260902000104 | 68 | 109 | 0.0 | 1.7 | 0.00 | 0.01 | 0.00 | 67 | 1009.8 |
| 20260901234557 | 70 | 37 | 0.0 | 0.9 | 0.00 | 0.01 | 0.00 | 65 | 1009.5 |
| 20260901233053 | 71 | 23 | 0.0 | 0.9 | 0.00 | 0.01 | 0.00 | 63 | 1009.6 |
| 20260901231600 | 71 | 23 | 0.0 | 0.0 | 0.00 | 0.01 | 0.00 | 62 | 1009.6 |
| 20260901230052 | 72 | 14 | 0.0 | 0.0 | 0.00 | 0.01 | 0.00 | 61 | 1009.4 |
| 20260901224551 | 73 | 20 | 0.0 | 4.3 | 0.00 | 0.01 | 0.00 | 59 | 1009.4 |
| 20260901223049 | 73 | 11 | 0.0 | 1.7 | 0.00 | 0.01 | 0.00 | 59 | 1009.5 |
| 20260901221546 | 72 | 335 | 0.0 | 1.7 | 0.00 | 0.01 | 0.00 | 60 | 1009.7 |
| 20260901220048 | 72 | 97 | 0.0 | 0.9 | 0.00 | 0.01 | 0.00 | 61 | 1010.0 |
| 20260901214543 | 72 | 97 | 0.0 | 0.9 | 0.00 | 0.01 | 0.00 | 59 | 1010.2 |
| 20260901213040 | 72 | 97 | 0.0 | 0.0 | 0.00 | 0.01 | 0.00 | 58 | 1010.2 |
| 20260901211539 | 72 | 97 | 0.0 | 0.9 | 0.00 | 0.01 | 0.00 | 58 | 1010.4 |
| 20260901210042 | 72 | 97 | 0.0 | 0.0 | 0.00 | 0.01 | 0.00 | 59 | 1010.5 |
| 20260901204535 | 72 | 97 | 0.0 | 0.0 | 0.00 | 0.01 | 0.01 | 60 | 1010.7 |
| 20260901203039 | 72 | 97 | 0.0 | 0.0 | 0.00 | 0.01 | 0.01 | 61 | 1010.7 |
| 20260901201535 | 72 | 97 | 0.0 | 0.0 | 0.00 | 0.01 | 0.01 | 61 | 1010.8 |
| 20260901200032 | 71 | 97 | 0.0 | 0.0 | 0.00 | 0.01 | 0.01 | 65 | 1010.8 |
| 20260901194533 | 70 | 97 | 0.0 | 0.0 | 0.00 | 0.01 | 0.01 | 71 | 1010.8 |
| 20260901193031 | 69 | 97 | 0.0 | 0.0 | 0.00 | 0.01 | 0.01 | 78 | 1010.8 |
| 20260901191536 | 69 | 97 | 0.0 | 0.0 | 0.00 | 0.01 | 0.01 | 82 | 1010.8 |
| 20260901190030 | 70 | 97 | 0.0 | 0.0 | 0.00 | 0.01 | 0.01 | 88 | 1010.8 |
| 20260901184529 | 70 | 97 | 0.0 | 0.0 | 0.00 | 0.01 | 0.01 | 90 | 1010.7 |
| 20260901183028 | 71 | 97 | 0.0 | 0.9 | 0.00 | 0.01 | 0.01 | 91 | 1010.7 |
| 20260901181532 | 71 | 97 | 0.0 | 1.7 | 0.00 | 0.01 | 0.01 | 91 | 1010.7 |
| 20260901180030 | 71 | 97 | 0.0 | 0.9 | 0.00 | 0.01 | 0.01 | 92 | 1010.6 |
| 20260901174525 | 71 | 97 | 0.0 | 1.7 | 0.00 | 0.01 | 0.01 | 92 | 1010.5 |
| 20260901173031 | 71 | 97 | 0.0 | 2.6 | 0.00 | 0.01 | 0.01 | 92 | 1010.3 |
| 20260901171524 | 71 | 311 | 0.0 | 0.9 | 0.00 | 0.01 | 0.01 | 92 | 1010.3 |
| 20260901170024 | 71 | 311 | 0.0 | 0.9 | 0.00 | 0.01 | 0.01 | 93 | 1010.2 |
| 20260901164523 | 71 | 311 | 0.0 | 0.9 | 0.00 | 0.01 | 0.01 | 92 | 1010.1 |
| 20260901163037 | 71 | 311 | 0.0 | 0.9 | 0.00 | 0.01 | 0.01 | 91 | 1010.0 |
| 20260901161523 | 72 | 311 | 0.0 | 0.9 | 0.00 | 0.01 | 0.01 | 91 | 1010.0 |
| 20260901160021 | 72 | 310 | 0.0 | 0.9 | 0.00 | 0.01 | 0.01 | 90 | 1010.0 |
| 20260901154533 | 73 | 310 | 0.0 | 0.9 | 0.00 | 0.01 | 0.01 | 89 | 1010.1 |
| 20260901153031 | 74 | 284 | 0.0 | 1.7 | 0.00 | 0.01 | 0.01 | 88 | 1010.1 |
| 20260901151521 | 74 | 272 | 0.0 | 1.7 | 0.00 | 0.01 | 0.01 | 87 | 1010.1 |
| 20260901150020 | 74 | 310 | 0.0 | 2.6 | 0.00 | 0.01 | 0.01 | 86 | 1010.0 |
| 20260901144521 | 75 | 300 | 0.9 | 5.2 | 0.00 | 0.01 | 0.01 | 86 | 1010.0 |
| 20260901143018 | 75 | 319 | 1.7 | 4.3 | 0.00 | 0.01 | 0.01 | 85 | 1010.1 |
| 20260901141519 | 75 | 281 | 0.0 | 7.0 | 0.00 | 0.01 | 0.01 | 84 | 1009.9 |
| 20260901140019 | 76 | 286 | 1.7 | 5.2 | 0.00 | 0.01 | 0.01 | 84 | 1010.0 |
| 20260901134517 | 76 | 298 | 1.7 | 7.0 | 0.00 | 0.01 | 0.01 | 83 | 1010.0 |
| 20260901133016 | 77 | 311 | 0.9 | 7.8 | 0.00 | 0.01 | 0.01 | 82 | 1010.0 |
| 20260901131516 | 78 | 288 | 2.6 | 5.2 | 0.00 | 0.01 | 0.01 | 80 | 1009.9 |
| 20260901130016 | 78 | 218 | 1.7 | 7.0 | 0.00 | 0.01 | 0.01 | 79 | 1009.9 |
| 20260901124514 | 78 | 295 | 1.7 | 6.1 | 0.00 | 0.01 | 0.01 | 79 | 1009.9 |
| 20260901123012 | 78 | 315 | 2.6 | 7.8 | 0.00 | 0.01 | 0.01 | 79 | 1010.0 |
| 20260901121512 | 78 | 275 | 0.9 | 8.7 | 0.00 | 0.01 | 0.01 | 79 | 1010.1 |
| 20260901120008 | 77 | 250 | 1.7 | 7.0 | 0.00 | 0.01 | 0.01 | 79 | 1010.2 |
| 20260901114507 | 77 | 259 | 2.6 | 7.8 | 0.00 | 0.01 | 0.01 | 80 | 1010.2 |
| 20260901113006 | 77 | 303 | 1.7 | 7.8 | 0.00 | 0.01 | 0.01 | 79 | 1010.2 |
| 20260901111507 | 77 | 307 | 1.7 | 5.2 | 0.00 | 0.01 | 0.01 | 80 | 1010.3 |
| 20260901110002 | 77 | 255 | 1.7 | 5.2 | 0.00 | 0.01 | 0.01 | 80 | 1010.2 |
| 20260901104501 | 76 | 290 | 1.7 | 7.0 | 0.00 | 0.01 | 0.01 | 80 | 1010.2 |
| 20260901103100 | 76 | 319 | 0.9 | 6.1 | 0.00 | 0.01 | 0.01 | 82 | 1010.3 |
| 20260901101559 | 76 | 315 | 2.6 | 6.1 | 0.00 | 0.01 | 0.01 | 81 | 1010.3 |
| 20260901100100 | 76 | 300 | 1.7 | 5.2 | 0.00 | 0.01 | 0.01 | 82 | 1010.2 |
| 20260901094558 | 75 | 324 | 1.7 | 7.0 | 0.00 | 0.01 | 0.01 | 83 | 1010.3 |
| 20260901093059 | 75 | 320 | 0.0 | 7.0 | 0.00 | 0.01 | 0.01 | 84 | 1010.3 |
| 20260901091604 | 75 | 282 | 1.7 | 5.2 | 0.00 | 0.01 | 0.01 | 84 | 1010.4 |
| 20260901090100 | 75 | 319 | 2.6 | 7.8 | 0.00 | 0.01 | 0.01 | 84 | 1010.4 |
| 20260901084554 | 75 | 307 | 3.5 | 6.1 | 0.00 | 0.01 | 0.01 | 83 | 1010.4 |
| 20260901083054 | 75 | 286 | 3.5 | 7.8 | 0.00 | 0.01 | 0.01 | 83 | 1010.4 |
| 20260901081555 | 75 | 296 | 3.5 | 8.7 | 0.00 | 0.01 | 0.01 | 80 | 1010.4 |
| 20260901080108 | 76 | 307 | 1.7 | 5.2 | 0.00 | 0.01 | 0.01 | 77 | 1010.5 |
| 20260901074551 | 76 | 294 | 1.7 | 7.0 | 0.00 | 0.01 | 0.01 | 75 | 1010.5 |
| 20260901073049 | 76 | 303 | 0.0 | 3.5 | 0.00 | 0.01 | 0.01 | 72 | 1010.5 |
| 20260901071552 | 76 | 269 | 0.0 | 3.5 | 0.00 | 0.01 | 0.01 | 69 | 1010.5 |
| 20260901070057 | 75 | 228 | 0.0 | 3.5 | 0.00 | 0.01 | 0.01 | 68 | 1010.5 |
| 20260901064603 | 75 | 302 | 0.9 | 4.3 | 0.00 | 0.01 | 0.01 | 65 | 1010.4 |
| 20260901063053 | 75 | 308 | 0.9 | 3.5 | 0.00 | 0.01 | 0.01 | 64 | 1010.4 |
| 20260901061541 | 74 | 18 | 0.0 | 3.5 | 0.00 | 0.01 | 0.01 | 65 | 1010.3 |
| 20260901060041 | 73 | 309 | 0.0 | 5.2 | 0.00 | 0.01 | 0.01 | 65 | 1010.2 |
| 20260901054534 | 71 | 310 | 0.0 | 2.6 | 0.00 | 0.01 | 0.01 | 68 | 1010.0 |
| 20260901053030 | 70 | 332 | 0.0 | 3.5 | 0.00 | 0.01 | 0.01 | 73 | 1009.9 |
| 20260901051526 | 69 | 31 | 0.0 | 1.7 | 0.00 | 0.01 | 0.01 | 80 | 1009.8 |
| 20260901050022 | 67 | 26 | 0.0 | 0.9 | 0.00 | 0.01 | 0.01 | 87 | 1009.7 |
| 20260901044520 | 67 | 27 | 0.0 | 1.7 | 0.00 | 0.01 | 0.01 | 93 | 1009.7 |
| 20260901043019 | 66 | 28 | 0.0 | 0.0 | 0.00 | 0.01 | 0.01 | 95 | 1009.8 |
| 20260901041519 | 64 | 28 | 0.0 | 0.0 | 0.00 | 0.01 | 0.01 | 95 | 1009.6 |
| 20260901040018 | 64 | 28 | 0.0 | 0.0 | 0.00 | 0.01 | 0.01 | 95 | 1009.5 |
| 20260901034516 | 64 | 28 | 0.0 | 0.0 | 0.00 | 0.01 | 0.01 | 96 | 1009.3 |
| 20260901033029 | 65 | 28 | 0.0 | 0.9 | 0.00 | 0.01 | 0.01 | 96 | 1009.3 |
| 20260901031521 | 65 | 28 | 0.0 | 0.0 | 0.00 | 0.01 | 0.01 | 96 | 1009.3 |
| 20260901030013 | 65 | 28 | 0.0 | 0.0 | 0.00 | 0.01 | 0.01 | 96 | 1009.2 |
| 20260901024513 | 65 | 28 | 0.0 | 0.0 | 0.00 | 0.01 | 0.01 | 96 | 1009.2 |
| 20260901023011 | 65 | 28 | 0.0 | 0.0 | 0.00 | 0.01 | 0.01 | 96 | 1009.2 |
| 20260901021514 | 65 | 28 | 0.0 | 0.0 | 0.00 | 0.01 | 0.01 | 96 | 1009.2 |
| 20260901020009 | 65 | 28 | 0.0 | 1.7 | 0.00 | 0.01 | 0.01 | 96 | 1009.1 |
| 20260901014509 | 66 | 15 | 0.0 | 0.0 | 0.00 | 0.01 | 0.01 | 95 | 1009.1 |
| 20260901013008 | 66 | 16 | 0.0 | 0.9 | 0.00 | 0.01 | 0.01 | 96 | 1009.2 |
| 20260901011511 | 66 | 16 | 0.0 | 1.7 | 0.00 | 0.01 | 0.01 | 95 | 1009.2 |
| 20260901010015 | 66 | 18 | 0.0 | 0.9 | 0.01 | 0.01 | 0.01 | 96 | 1009.2 |
| 20260901004503 | 66 | 356 | 0.0 | 1.7 | 0.01 | 0.01 | 0.01 | 96 | 1009.3 |